[[[{"header":{"parameterUnit":"kt","parameterCategory":2,"dx":1,"dy":1,"la1":30.253999710083008,"la2":30.299108505249023,"lo1":-89.0895004272461,"lo2":-89.04439544677734,"nx":28,"ny":28,"refTime":"2022-10-25T21:00:00:Z","depth":"0","parameterNumber":2,"parameterNumberName":"U-component_of_CURRENTS"},"data":[0.355,0.3544,0.3592,0.3621,0.3686,0.3714,0.379,0.396,0.4264,0.4817,0.5316,0.5734,0.6636,0.7403,0.7566,0.7334,0.6706,0.6519,0.6238,0.6777,0.6749,0.6721,0.6719,0.6988,0.6988,0.5551,0.5543,0.5536,0.3636,0.3663,0.372,0.3804,0.3849,0.3956,0.412,0.4188,0.4411,0.4856,0.5161,0.5879,0.6272,0.6584,0.701,0.6911,0.6417,0.677,0.632,0.6093,0.6576,0.6576,0.6819,0.6819,0.6819,0.6819,0.6819,0.6819,0.3778,0.3782,0.3847,0.3928,0.4013,0.4113,0.4163,0.4366,0.4591,0.4919,0.5198,0.5575,0.6075,0.6446,0.6411,0.6578,0.6249,0.6517,0.6483,0.6117,0.5883,0.6322,0.6537,0.6536,0.6535,0.6535,0.6534,0,0.3882,0.3934,0.3971,0.4059,0.4134,0.4223,0.4363,0.4471,0.4724,0.4935,0.5251,0.5479,0.586,0.6096,0.63,0.6337,0.6043,0.6255,0.6291,0.6237,0.5863,0.5623,0.5977,0.6194,0.6191,0.6189,0.6188,0.6187,0.3993,0.4013,0.4141,0.4179,0.4234,0.4323,0.4397,0.4607,0.4725,0.5061,0.5152,0.5442,0.566,0.5945,0.6044,0.6158,0.5935,0.6191,0.6072,0.6113,0.6073,0.5713,0.5504,0.6158,0.6161,0.6164,0.6167,0,0.4045,0.4127,0.4189,0.431,0.4351,0.4395,0.4586,0.4663,0.4847,0.5014,0.5076,0.5347,0.5544,0.5654,0.5766,0.5776,0.5791,0.5895,0.5925,0.5927,0.6025,0.5992,0.5839,0.5617,0.6017,0.602,0.6023,0,0.4144,0.4184,0.4291,0.4311,0.4385,0.4499,0.46,0.4709,0.4887,0.5003,0.5137,0.5272,0.5363,0.55,0.551,0.566,0.5646,0.5655,0.5655,0.5666,0.5672,0.5709,0.5674,0.5577,0.5576,0.5575,0.5574,0,0.414,0.4278,0.4331,0.4372,0.4508,0.4561,0.4648,0.479,0.4889,0.5028,0.5112,0.5228,0.5315,0.5362,0.545,0.5385,0.5588,0.5485,0.5584,0.5588,0.5628,0.5632,0.5857,0.5573,0.5573,0.5572,0.5572,0,0.421,0.4264,0.4349,0.4464,0.4499,0.4563,0.4693,0.4783,0.4924,0.4976,0.5078,0.5126,0.5245,0.5193,0.5331,0.5281,0.5298,0.5315,0.5319,0.5379,0.5311,0.5451,0.5634,0.5677,0.533,0.5328,0.5326,0,0.4164,0.4257,0.4338,0.4436,0.4493,0.4586,0.4668,0.4758,0.4833,0.4914,0.4976,0.5047,0.5038,0.5066,0.5119,0.5158,0.5212,0.5133,0.5188,0.5191,0.5252,0.5416,0.5458,0.5593,0.5299,0.5302,0.5304,0,0.4123,0.4258,0.4273,0.4315,0.4448,0.4492,0.4598,0.4703,0.4753,0.4821,0.4892,0.4971,0.4982,0.5002,0.5011,0.5054,0.5165,0.5019,0.5018,0.5065,0.528,0.5366,0.5392,0.514,0.5143,0.5146,0.5283,0,0.4138,0.4203,0.4244,0.4341,0.4402,0.4476,0.4551,0.4607,0.4635,0.4675,0.4766,0.4792,0.4841,0.4858,0.485,0.4954,0.4941,0.4899,0.4842,0.4934,0.498,0.4998,0.4767,0.4765,0.4763,0.4762,0,0,0.4074,0.4153,0.4205,0.4269,0.4322,0.4376,0.4441,0.449,0.4558,0.4591,0.4565,0.4661,0.4664,0.4752,0.4788,0.4783,0.4804,0.4762,0.4883,0.4897,0.4909,0.4958,0.4977,0.4759,0.4758,0.4758,0.4757,0,0.4083,0.413,0.4177,0.4235,0.4322,0.4365,0.4384,0.4456,0.4481,0.4541,0.4538,0.458,0.4613,0.4645,0.4658,0.4755,0.4731,0.4757,0.4822,0.4868,0.4883,0.4897,0.4949,0.4966,0.4753,0.4754,0.4754,0,0.4057,0.4108,0.4132,0.4223,0.4274,0.4339,0.4327,0.4394,0.4439,0.4407,0.4463,0.4478,0.4488,0.455,0.457,0.4536,0.4661,0.4605,0.4614,0.4625,0.4669,0.4687,0.4703,0.4493,0.4492,0.4491,0,0,0.4058,0.4104,0.4178,0.4227,0.4263,0.4312,0.4346,0.4366,0.4401,0.4412,0.4418,0.4429,0.4463,0.447,0.4497,0.4545,0.4551,0.4575,0.4588,0.4598,0.4614,0.4661,0.4678,0.4489,0.4489,0.4489,0,0,0.4054,0.413,0.4144,0.4201,0.4265,0.4326,0.4362,0.4369,0.4398,0.4391,0.4376,0.4377,0.443,0.4416,0.4383,0.4476,0.4423,0.443,0.4487,0.4502,0.4514,0.4528,0.4336,0,0,0,0,0,0.409,0.4125,0.4137,0.4155,0.4246,0.4326,0.4339,0.4361,0.4339,0.4367,0.4372,0.434,0.4403,0.4374,0.4377,0.4421,0.4455,0.4461,0.4466,0.4552,0.4568,0.4581,0,0,0,0,0,0,0.4097,0.4117,0.4137,0.4199,0.4221,0.4324,0.4295,0.4302,0.4336,0.4334,0.4343,0.434,0.4332,0.437,0.4373,0.4416,0.4335,0.4457,0.4462,0.4467,0.4557,0.457,0.4582,0,0,0,0,0,0.4103,0.4119,0.4256,0.4199,0.4218,0.4263,0.4292,0.4298,0.432,0.4329,0.4328,0.4334,0.4333,0.4335,0.4372,0.4415,0.4332,0.4333,0.446,0.4464,0.4468,0.4564,0,0,0,0,0,0,0.4107,0.4121,0.4261,0.4268,0.4178,0.4257,0.4268,0.4295,0.4311,0.4314,0.4318,0.4316,0.4335,0.4336,0.4337,0.4417,0.433,0.4331,0.4332,0.4463,0.4467,0.4469,0,0,0,0,0,0,0.4113,0.4126,0.4265,0.4237,0.4241,0.4252,0.4262,0.4284,0.4308,0.4297,0.4298,0.4317,0.4313,0.4337,0.4337,0.4373,0.4328,0.4329,0.433,0.4331,0.4466,0.4468,0,0,0,0,0,0,0.4119,0.4131,0.4234,0.4238,0.4241,0.4321,0.4269,0.4347,0.4332,0.4294,0.4327,0.4325,0.4313,0.4315,0.4338,0.4373,0.4373,0.4328,0.4329,0.433,0.433,0,0,0,0,0,0,0,0.4124,0.4037,0.4223,0.4239,0.4241,0.4337,0.4338,0.434,0.4332,0.433,0.4328,0.4326,0.432,0.4321,0.4323,0.4374,0,0,0.4328,0.4329,0,0,0,0,0,0,0,0,0.4033,0.4036,0.4223,0.4225,0.4227,0.4337,0.4338,0.434,0.4332,0.433,0.4328,0.4327,0.432,0.4321,0.4323,0,0,0,0,0,0,0,0,0,0,0,0,0,0,0,0.4223,0.4225,0,0.4337,0.4338,0.4339,0.4331,0.433,0.4329,0.4327,0.432,0.4321,0.4323,0,0,0,0,0,0,0,0,0,0,0,0,0,0,0,0,0,0,0,0,0,0,0,0,0,0,0,0,0,0,0,0,0,0,0,0,0,0,0,0,0,0,0,0,0,0,0,0,0,0,0,0,0,0,0,0,0,0,0,0,0,0,0,0,0,0,0,0,0]}],[{"header":{"parameterUnit":"kt","parameterCategory":2,"dx":1,"dy":1,"la1":30.253999710083008,"la2":30.299108505249023,"lo1":-89.0895004272461,"lo2":-89.04439544677734,"nx":28,"ny":28,"refTime":"2022-10-25T21:00:00:Z","depth":"0","parameterNumber":3,"parameterNumberName":"V-component_of_CURRENTS"},"data":[0.0776,0.0976,0.1076,0.1428,0.1589,0.1875,0.2036,0.2282,0.2456,0.2625,0.2605,0.2497,0.1657,-0.1054,-0.2995,-0.3492,-0.4144,-0.4306,-0.4646,-0.3902,-0.383,-0.3762,-0.3853,-0.4468,-0.447,-0.5675,-0.5687,-0.5697,0.0703,0.0821,0.1007,0.1235,0.1433,0.1483,0.1739,0.1914,0.2148,0.2265,0.2299,0.1854,0.0825,-0.0209,-0.1647,-0.2482,-0.2854,-0.299,-0.3283,-0.3429,-0.2303,-0.2339,-0.2641,-0.2641,-0.264,-0.264,-0.2639,-0.2639,0.0573,0.068,0.0819,0.1009,0.1166,0.1369,0.1531,0.1678,0.1845,0.1971,0.1827,0.1777,0.0949,-0.0023,-0.0612,-0.1698,-0.1727,-0.2012,-0.2261,-0.2402,-0.2673,-0.1411,-0.155,-0.155,-0.1549,-0.1549,-0.1549,0,0.0469,0.0514,0.0617,0.0812,0.095,0.1102,0.1251,0.1364,0.1377,0.1434,0.1474,0.1386,0.0811,0.029,-0.0412,-0.0789,-0.1575,-0.1262,-0.1688,-0.2106,-0.2316,-0.2584,-0.1299,-0.1371,-0.1369,-0.1368,-0.1367,-0.1367,0.0334,0.041,0.0545,0.0639,0.0688,0.0826,0.093,0.0939,0.1023,0.1005,0.1063,0.0849,0.0731,0.0158,-0.0383,-0.0868,-0.1271,-0.1213,-0.1289,-0.1689,-0.1999,-0.218,-0.2371,-0.1351,-0.1353,-0.1354,-0.1356,0,0.0262,0.0285,0.041,0.0491,0.0535,0.0636,0.0744,0.0818,0.0776,0.0841,0.083,0.0636,0.0383,0.0019,-0.0352,-0.0628,-0.1195,-0.1045,-0.1039,-0.1099,-0.1664,-0.19,-0.2341,-0.2588,-0.126,-0.1262,-0.1263,0,0.0141,0.0224,0.0272,0.0324,0.0472,0.0441,0.0568,0.0538,0.0533,0.059,0.0383,0.0384,0.0017,-0.0164,-0.045,-0.0762,-0.0725,-0.1031,-0.1093,-0.1111,-0.1118,-0.1529,-0.1776,-0.1011,-0.1011,-0.101,-0.1009,0,0.0017,0.0089,0.0196,0.0208,0.0244,0.0297,0.0317,0.0287,0.0312,0.0226,0.0228,0.0059,-0.0016,-0.024,-0.0541,-0.0574,-0.0797,-0.0877,-0.1066,-0.1072,-0.1157,-0.1171,-0.154,-0.1008,-0.1008,-0.1008,-0.1008,0,-0.0114,-0.0066,0.0045,0.0103,0.0117,0.0155,0.0192,0.0187,0.0117,0.0056,-0.0031,-0.0152,-0.0258,-0.0397,-0.0624,-0.0597,-0.0757,-0.0894,-0.0902,-0.0997,-0.1093,-0.1186,-0.1161,-0.1572,-0.1023,-0.1023,-0.1022,0,-0.0214,-0.0126,-0.0164,-0.0076,-0.0037,-0.0113,-0.0084,-0.0121,-0.019,-0.0214,-0.0358,-0.0401,-0.055,-0.058,-0.0659,-0.0823,-0.0869,-0.0837,-0.103,-0.1035,-0.1078,-0.1035,-0.1065,-0.115,-0.1017,-0.1018,-0.1018,0,-0.0311,-0.0319,-0.0308,-0.0276,-0.0319,-0.0317,-0.031,-0.0333,-0.0315,-0.0437,-0.0426,-0.0558,-0.0641,-0.0685,-0.0786,-0.0841,-0.0868,-0.0931,-0.0937,-0.0957,-0.0971,-0.1023,-0.1032,-0.0924,-0.0923,-0.0923,-0.1014,0,-0.0417,-0.0396,-0.0381,-0.039,-0.0406,-0.0398,-0.0478,-0.0499,-0.0563,-0.0628,-0.0676,-0.0796,-0.0857,-0.0906,-0.0969,-0.0974,-0.1016,-0.1072,-0.1106,-0.1053,-0.1104,-0.1106,-0.1112,-0.1114,-0.1116,-0.1118,0,0,-0.0497,-0.048,-0.0561,-0.0543,-0.0552,-0.0665,-0.0631,-0.0686,-0.0774,-0.0784,-0.0849,-0.0965,-0.1041,-0.1053,-0.1055,-0.1095,-0.1135,-0.1086,-0.108,-0.1076,-0.1072,-0.1115,-0.1116,-0.1122,-0.1122,-0.1123,-0.1124,0,-0.0549,-0.0583,-0.056,-0.0597,-0.0659,-0.0712,-0.071,-0.0805,-0.0843,-0.0867,-0.0959,-0.101,-0.108,-0.1134,-0.1168,-0.1121,-0.1202,-0.115,-0.1045,-0.1097,-0.1089,-0.1083,-0.1124,-0.1122,-0.1129,-0.1128,-0.1128,0,-0.0626,-0.0663,-0.0671,-0.0723,-0.0776,-0.0783,-0.0884,-0.0915,-0.0919,-0.1033,-0.1044,-0.1123,-0.1199,-0.1216,-0.1227,-0.1244,-0.1249,-0.1249,-0.124,-0.1222,-0.1278,-0.1269,-0.1261,-0.1364,-0.1365,-0.1365,0,0,-0.0658,-0.066,-0.0752,-0.0744,-0.0767,-0.0863,-0.0894,-0.0948,-0.1009,-0.1031,-0.1096,-0.1156,-0.1205,-0.1218,-0.1275,-0.1267,-0.1314,-0.1272,-0.1261,-0.1251,-0.1228,-0.1281,-0.1272,-0.1366,-0.1366,-0.1366,0,0,-0.0688,-0.0772,-0.0805,-0.08,-0.0861,-0.097,-0.0975,-0.103,-0.1073,-0.1075,-0.1167,-0.1183,-0.1205,-0.1247,-0.1249,-0.1287,-0.134,-0.134,-0.1239,-0.1226,-0.1216,-0.1176,-0.1338,0,0,0,0,0,-0.0788,-0.0759,-0.0787,-0.08,-0.0891,-0.0948,-0.0965,-0.105,-0.1084,-0.108,-0.1135,-0.1192,-0.1274,-0.1278,-0.1289,-0.1276,-0.1377,-0.1375,-0.1373,-0.1245,-0.1231,-0.1219,0,0,0,0,0,0,-0.0794,-0.0805,-0.079,-0.089,-0.0914,-0.0949,-0.1027,-0.105,-0.1086,-0.1096,-0.118,-0.1195,-0.1258,-0.1277,-0.1286,-0.1272,-0.1335,-0.1377,-0.1375,-0.1373,-0.124,-0.1229,-0.1219,0,0,0,0,0,-0.0799,-0.0809,-0.0921,-0.0893,-0.0913,-0.1024,-0.1028,-0.1047,-0.1072,-0.1171,-0.1188,-0.1134,-0.1256,-0.1269,-0.1283,-0.1266,-0.1329,-0.1332,-0.1375,-0.1374,-0.1373,-0.1235,0,0,0,0,0,0,-0.0803,-0.0831,-0.0929,-0.094,-0.0903,-0.1025,-0.1041,-0.1045,-0.1145,-0.1164,-0.1129,-0.1136,-0.1254,-0.1264,-0.1274,-0.126,-0.1324,-0.1327,-0.1329,-0.1374,-0.1373,-0.1372,0,0,0,0,0,0,-0.0827,-0.0838,-0.0934,-0.0942,-0.0954,-0.1024,-0.1039,-0.1067,-0.1144,-0.1097,-0.1107,-0.1131,-0.1234,-0.1261,-0.1269,-0.131,-0.132,-0.1323,-0.1325,-0.1327,-0.1373,-0.1373,0,0,0,0,0,0,-0.0834,-0.0844,-0.0939,-0.0949,-0.096,-0.1091,-0.1051,-0.1131,-0.1171,-0.109,-0.1175,-0.1177,-0.1228,-0.1238,-0.1265,-0.1303,-0.1308,-0.132,-0.1322,-0.1324,-0.1325,0,0,0,0,0,0,0,-0.084,-0.0739,-0.0865,-0.0955,-0.0965,-0.1045,-0.1048,-0.1051,-0.1171,-0.1173,-0.1175,-0.1176,-0.1302,-0.1305,-0.1309,-0.1297,0,0,-0.132,-0.1321,0,0,0,0,0,0,0,0,-0.0738,-0.0739,-0.0866,-0.0868,-0.0871,-0.1046,-0.1048,-0.105,-0.1172,-0.1173,-0.1174,-0.1176,-0.1303,-0.1306,-0.1309,0,0,0,0,0,0,0,0,0,0,0,0,0,0,0,-0.0866,-0.0868,0,-0.1046,-0.1048,-0.105,-0.1172,-0.1173,-0.1174,-0.1175,-0.1304,-0.1306,-0.1308,0,0,0,0,0,0,0,0,0,0,0,0,0,0,0,0,0,0,0,0,0,0,0,0,0,0,0,0,0,0,0,0,0,0,0,0,0,0,0,0,0,0,0,0,0,0,0,0,0,0,0,0,0,0,0,0,0,0,0,0,0,0,0,0,0,0,0,0,0]}]],[[{"header":{"parameterUnit":"kt","parameterCategory":2,"dx":1,"dy":1,"la1":30.253999710083008,"la2":30.299108505249023,"lo1":-89.0895004272461,"lo2":-89.04439544677734,"nx":28,"ny":28,"refTime":"2022-10-25T21:00:00:Z","depth":"2","parameterNumber":2,"parameterNumberName":"U-component_of_CURRENTS"},"data":[0.3462,0.3448,0.3496,0.3507,0.3589,0.356,0.3631,0.3632,0.3738,0.3756,0.381,0.4186,0.4487,0.3917,0.3941,0.3732,0.3821,0.3604,0.4865,0.4495,0.4529,0.466,0.4498,0,0,0,0,0,0.355,0.3594,0.3652,0.3736,0.3757,0.3888,0.4047,0.4022,0.4162,0.4399,0.4602,0.4377,0.4485,0.4588,0.4435,0.4548,0.4344,0.4356,0.3997,0.4051,0.4095,0.394,0.3596,0.359,0.3584,0.3579,0,0,0.3704,0.371,0.3777,0.3858,0.3943,0.404,0.4089,0.4244,0.4446,0.4652,0.4988,0.5124,0.5265,0.532,0.5235,0.5149,0.5499,0.5222,0.5222,0.523,0.5152,0.5109,0.5121,0.5126,0.5131,0.5135,0.5139,0,0.3804,0.3859,0.3895,0.3985,0.4061,0.4149,0.4289,0.4395,0.4645,0.484,0.5146,0.5356,0.5643,0.5601,0.5754,0.5716,0.5517,0.5481,0.5959,0.4929,0.487,0.4839,0.4845,0.4853,0.4857,0.486,0.4863,0.4864,0.3913,0.3933,0.4062,0.41,0.4156,0.4246,0.432,0.4528,0.4645,0.4976,0.5065,0.5349,0.5549,0.5818,0.5821,0.5901,0.5905,0.556,0.5379,0.5753,0.5729,0.5708,0.5689,0.4908,0.4903,0.4898,0.4894,0,0.3965,0.4046,0.4107,0.4227,0.4268,0.4313,0.4503,0.458,0.4763,0.4929,0.4991,0.5256,0.5447,0.5552,0.5659,0.5664,0.5742,0.5774,0.5334,0.5283,0.5676,0.5662,0.5873,0.5877,0.5881,0.5884,0.5887,0,0.4064,0.4103,0.4209,0.4229,0.4301,0.4413,0.4514,0.4623,0.4799,0.4914,0.5047,0.518,0.5268,0.5402,0.5411,0.5552,0.5541,0.5545,0.5543,0.5144,0.5117,0.5329,0.5311,0.5474,0.5473,0.5472,0.5471,0,0.4064,0.4199,0.4249,0.4289,0.4421,0.4475,0.4561,0.4702,0.48,0.4938,0.5021,0.5135,0.5222,0.5266,0.5355,0.5292,0.5488,0.5387,0.5476,0.548,0.5115,0.5085,0.547,0.547,0.5469,0.5469,0.5469,0,0.4135,0.4187,0.4269,0.4381,0.4415,0.4478,0.4606,0.4694,0.4833,0.4886,0.4987,0.5036,0.5155,0.5105,0.524,0.5193,0.521,0.5226,0.523,0.528,0.5213,0.4919,0.4994,0.5241,0.5239,0.5237,0.5235,0,0.4091,0.4182,0.4262,0.4356,0.4411,0.4503,0.4583,0.4673,0.4748,0.4828,0.489,0.4961,0.4956,0.4985,0.5036,0.5077,0.5128,0.5053,0.5101,0.5103,0.5157,0.5316,0.4886,0.4974,0.521,0.5213,0.5215,0,0.4052,0.4185,0.42,0.4241,0.4371,0.4414,0.4518,0.4621,0.4671,0.474,0.481,0.4889,0.4903,0.4921,0.4933,0.4974,0.5083,0.4941,0.4941,0.4985,0.5191,0.5269,0.5293,0.5058,0.5061,0.5064,0.5194,0,0.4066,0.4131,0.4171,0.4267,0.4326,0.4399,0.4474,0.4531,0.4559,0.46,0.469,0.4716,0.4764,0.4783,0.4776,0.4878,0.4865,0.4823,0.4766,0.4856,0.49,0.4917,0.4695,0.4693,0.4691,0.469,0,0,0.4005,0.4081,0.4134,0.4197,0.4249,0.4304,0.4367,0.4416,0.4486,0.4518,0.4494,0.4588,0.4591,0.4677,0.4715,0.471,0.4729,0.469,0.4807,0.482,0.4832,0.4879,0.4896,0.4687,0.4687,0.4686,0.4686,0,0.4012,0.4059,0.4107,0.4164,0.4251,0.4293,0.4313,0.4385,0.4411,0.447,0.4468,0.4511,0.4542,0.4573,0.4586,0.4681,0.4657,0.4685,0.475,0.4791,0.4806,0.482,0.4869,0.4886,0.4682,0.4682,0.4682,0,0.3986,0.4037,0.4062,0.4152,0.4203,0.4267,0.4257,0.4324,0.4369,0.4338,0.4394,0.4409,0.4417,0.4478,0.4499,0.4464,0.4586,0.4533,0.4542,0.4551,0.4591,0.4609,0.4625,0.4419,0.4418,0.4418,0,0,0.3988,0.4034,0.4108,0.4156,0.4192,0.4242,0.4276,0.4297,0.4332,0.4343,0.4349,0.436,0.4392,0.4399,0.4426,0.4472,0.4476,0.4503,0.4515,0.4526,0.4541,0.4583,0.46,0.4415,0.4415,0.4415,0,0,0.3983,0.406,0.4075,0.4131,0.4195,0.4256,0.4292,0.43,0.4329,0.4323,0.4307,0.4308,0.4361,0.4345,0.4313,0.4405,0.4352,0.4359,0.4417,0.4432,0.4444,0.4458,0.4267,0,0,0,0,0,0.402,0.4055,0.4068,0.4085,0.4176,0.4255,0.4268,0.4291,0.4271,0.4299,0.4304,0.4272,0.4333,0.4304,0.4307,0.4352,0.4382,0.4388,0.4393,0.4481,0.4497,0.451,0,0,0,0,0,0,0.4027,0.4047,0.4067,0.4129,0.415,0.4253,0.4225,0.4232,0.4269,0.4267,0.4275,0.4272,0.4263,0.43,0.4303,0.4347,0.4266,0.4384,0.4389,0.4394,0.4486,0.4499,0.4511,0,0,0,0,0,0.4033,0.4049,0.4185,0.4128,0.4147,0.4194,0.4223,0.4228,0.4251,0.426,0.4259,0.4267,0.4265,0.4266,0.4302,0.4346,0.4263,0.4264,0.4387,0.4391,0.4395,0.4493,0,0,0,0,0,0,0.4037,0.405,0.419,0.4197,0.4109,0.4188,0.42,0.4225,0.4241,0.4244,0.425,0.4248,0.4266,0.4267,0.4268,0.4348,0.4261,0.4262,0.4263,0.439,0.4393,0.4396,0,0,0,0,0,0,0.4042,0.4056,0.4193,0.4167,0.4172,0.4183,0.4193,0.4213,0.4239,0.4228,0.4229,0.4249,0.4245,0.4268,0.4268,0.4301,0.4259,0.4261,0.4262,0.4262,0.4393,0.4395,0,0,0,0,0,0,0.4049,0.406,0.4165,0.4168,0.4172,0.4252,0.4199,0.4275,0.4264,0.4225,0.4259,0.4257,0.4245,0.4247,0.4269,0.4301,0.4301,0.4259,0.426,0.4261,0.4261,0,0,0,0,0,0,0,0.4054,0.3966,0.4152,0.4169,0.4172,0.4266,0.4268,0.4269,0.4264,0.4262,0.426,0.4258,0.4252,0.4253,0.4255,0.4302,0,0,0.4259,0.426,0,0,0,0,0,0,0,0,0.3963,0.3966,0.4152,0.4154,0.4156,0.4266,0.4268,0.4269,0.4263,0.4262,0.426,0.4259,0.4252,0.4253,0.4255,0,0,0,0,0,0,0,0,0,0,0,0,0,0,0,0.4152,0.4154,0,0.4267,0.4268,0.4269,0.4263,0.4262,0.4261,0.426,0.4253,0.4254,0.4255,0,0,0,0,0,0,0,0,0,0,0,0,0,0,0,0,0,0,0,0,0,0,0,0,0,0,0,0,0,0,0,0,0,0,0,0,0,0,0,0,0,0,0,0,0,0,0,0,0,0,0,0,0,0,0,0,0,0,0,0,0,0,0,0,0,0,0,0,0]}],[{"header":{"parameterUnit":"kt","parameterCategory":2,"dx":1,"dy":1,"la1":30.253999710083008,"la2":30.299108505249023,"lo1":-89.0895004272461,"lo2":-89.04439544677734,"nx":28,"ny":28,"refTime":"2022-10-25T21:00:00:Z","depth":"2","parameterNumber":3,"parameterNumberName":"V-component_of_CURRENTS"},"data":[0.0891,0.109,0.119,0.1537,0.1689,0.1985,0.2146,0.2382,0.2502,0.2608,0.2514,0.2256,0.1405,0.0751,-0.0041,-0.0584,-0.0713,-0.0701,-0.0659,-0.0446,-0.0434,-0.0999,-0.0937,0,0,0,0,0,0.082,0.0927,0.1107,0.1331,0.1534,0.1575,0.1828,0.2003,0.223,0.2271,0.2285,0.1777,0.1163,0.0485,-0.0454,-0.1026,-0.1066,-0.1208,-0.1112,-0.1107,-0.1103,-0.1071,-0.1148,-0.1149,-0.1151,-0.1152,0,0,0.0687,0.0791,0.0927,0.1112,0.1266,0.1465,0.1624,0.1766,0.1927,0.2031,0.1885,0.1763,0.1179,0.0321,-0.0282,-0.0928,-0.0922,-0.1128,-0.1123,-0.1119,-0.109,-0.1065,-0.117,-0.1171,-0.1172,-0.1172,-0.1173,0,0.059,0.0634,0.0733,0.0924,0.1057,0.1205,0.135,0.1459,0.1471,0.1523,0.1557,0.1464,0.0908,0.0427,-0.0261,-0.0594,-0.0922,-0.1014,-0.1013,-0.0943,-0.0911,-0.096,-0.0956,-0.0994,-0.0994,-0.0993,-0.0993,-0.0993,0.0462,0.0536,0.0667,0.0759,0.0805,0.0938,0.1038,0.1046,0.1127,0.1104,0.116,0.0942,0.0821,0.0251,-0.0263,-0.0739,-0.0815,-0.0994,-0.1048,-0.1037,-0.1091,-0.1083,-0.1077,-0.0992,-0.0992,-0.0992,-0.0993,0,0.0395,0.0418,0.0538,0.0617,0.0659,0.0756,0.086,0.093,0.0886,0.0947,0.0934,0.074,0.0487,0.0128,-0.0241,-0.051,-0.0811,-0.0925,-0.0816,-0.0864,-0.1066,-0.1062,-0.1137,-0.114,-0.1142,-0.1144,-0.1145,0,0.028,0.036,0.0408,0.0457,0.06,0.057,0.069,0.066,0.0652,0.0706,0.0501,0.0499,0.0138,-0.0044,-0.0325,-0.0636,-0.0599,-0.0899,-0.096,-0.0887,-0.0887,-0.0921,-0.0925,-0.0878,-0.0877,-0.0876,-0.0875,0,0.016,0.0232,0.0336,0.0348,0.0383,0.0433,0.0453,0.042,0.0443,0.0355,0.0354,0.0186,0.0109,-0.0112,-0.0409,-0.0439,-0.0666,-0.0741,-0.093,-0.0936,-0.0934,-0.094,-0.0874,-0.0874,-0.0874,-0.0874,-0.0873,0,0.0036,0.0084,0.0191,0.0248,0.0261,0.0299,0.0331,0.0327,0.0255,0.0193,0.0105,-0.0015,-0.0121,-0.0255,-0.0482,-0.0454,-0.0613,-0.0748,-0.0756,-0.085,-0.0942,-0.095,-0.091,-0.088,-0.0879,-0.0879,-0.0878,0,-0.0061,0.0027,-0.0008,0.0076,0.0114,0.004,0.0068,0.003,-0.0038,-0.0066,-0.0207,-0.0252,-0.0396,-0.0428,-0.0506,-0.0669,-0.0717,-0.0681,-0.0878,-0.0883,-0.0926,-0.0889,-0.0816,-0.0902,-0.0872,-0.0872,-0.0873,0,-0.0155,-0.016,-0.015,-0.012,-0.0159,-0.0158,-0.0151,-0.0174,-0.016,-0.0281,-0.0274,-0.0401,-0.0486,-0.0528,-0.0627,-0.0682,-0.0713,-0.077,-0.0777,-0.0802,-0.0822,-0.0875,-0.0885,-0.0767,-0.0767,-0.0767,-0.0868,0,-0.0257,-0.0236,-0.022,-0.0228,-0.0243,-0.0236,-0.0314,-0.0336,-0.0402,-0.0466,-0.0517,-0.0633,-0.0694,-0.0741,-0.0802,-0.081,-0.0853,-0.0905,-0.0938,-0.0888,-0.0942,-0.0946,-0.0939,-0.0942,-0.0944,-0.0945,0,0,-0.0336,-0.0317,-0.0395,-0.0377,-0.0387,-0.0499,-0.0466,-0.0519,-0.0607,-0.0618,-0.0684,-0.0798,-0.0871,-0.0883,-0.0885,-0.0923,-0.0965,-0.0915,-0.0913,-0.0909,-0.0905,-0.0953,-0.0954,-0.0949,-0.095,-0.095,-0.0951,0,-0.0384,-0.0417,-0.0394,-0.043,-0.0492,-0.0543,-0.0543,-0.0636,-0.0676,-0.07,-0.0791,-0.0842,-0.0909,-0.0961,-0.0993,-0.0947,-0.103,-0.0976,-0.0876,-0.0928,-0.0921,-0.0916,-0.0961,-0.096,-0.0956,-0.0956,-0.0955,0,-0.046,-0.0495,-0.0503,-0.0553,-0.0605,-0.0611,-0.0712,-0.0744,-0.0748,-0.086,-0.0873,-0.0951,-0.1023,-0.104,-0.1051,-0.1066,-0.1074,-0.1071,-0.1063,-0.1046,-0.1103,-0.1095,-0.1087,-0.1183,-0.1183,-0.1183,0,0,-0.0489,-0.0491,-0.058,-0.0572,-0.0596,-0.0691,-0.0722,-0.0777,-0.0836,-0.0859,-0.0923,-0.0982,-0.1029,-0.1042,-0.1097,-0.1088,-0.1136,-0.1094,-0.1083,-0.1074,-0.1052,-0.1106,-0.1098,-0.1184,-0.1184,-0.1184,0,0,-0.0519,-0.06,-0.0634,-0.0628,-0.0688,-0.0794,-0.08,-0.0856,-0.0898,-0.0903,-0.0992,-0.1009,-0.1031,-0.1071,-0.1073,-0.1109,-0.1161,-0.1161,-0.1064,-0.1051,-0.1041,-0.1005,-0.116,0,0,0,0,0,-0.0617,-0.0587,-0.0616,-0.0628,-0.0716,-0.0772,-0.0788,-0.0874,-0.091,-0.0907,-0.0962,-0.1018,-0.1098,-0.1101,-0.1112,-0.1099,-0.1195,-0.1193,-0.1191,-0.1068,-0.1054,-0.1043,0,0,0,0,0,0,-0.0622,-0.0633,-0.0619,-0.0716,-0.0739,-0.0773,-0.0851,-0.0874,-0.0912,-0.0923,-0.1005,-0.102,-0.1082,-0.11,-0.1109,-0.1096,-0.1157,-0.1194,-0.1193,-0.1191,-0.1063,-0.1052,-0.1043,0,0,0,0,0,-0.0627,-0.0637,-0.0745,-0.0719,-0.0738,-0.085,-0.0852,-0.0872,-0.0899,-0.0995,-0.1012,-0.0962,-0.1079,-0.1092,-0.1106,-0.109,-0.1151,-0.1154,-0.1193,-0.1192,-0.1191,-0.1058,0,0,0,0,0,0,-0.0631,-0.0657,-0.0752,-0.0763,-0.0731,-0.085,-0.0867,-0.0869,-0.0969,-0.0987,-0.0955,-0.0962,-0.1077,-0.1087,-0.1096,-0.1084,-0.1147,-0.115,-0.1152,-0.1192,-0.1191,-0.119,0,0,0,0,0,0,-0.0654,-0.0665,-0.0758,-0.0768,-0.0781,-0.085,-0.0865,-0.089,-0.0967,-0.0922,-0.0932,-0.0957,-0.1058,-0.1084,-0.1091,-0.1128,-0.1143,-0.1146,-0.1148,-0.1149,-0.1191,-0.1191,0,0,0,0,0,0,-0.0661,-0.0671,-0.0765,-0.0775,-0.0786,-0.0915,-0.0874,-0.0952,-0.0996,-0.0915,-0.1,-0.1003,-0.1053,-0.1062,-0.1087,-0.1121,-0.1126,-0.1143,-0.1145,-0.1147,-0.1148,0,0,0,0,0,0,0,-0.0667,-0.0569,-0.069,-0.0781,-0.0791,-0.0867,-0.087,-0.0873,-0.0996,-0.0998,-0.1,-0.1002,-0.1126,-0.113,-0.1133,-0.1115,0,0,-0.1143,-0.1144,0,0,0,0,0,0,0,0,-0.0568,-0.0568,-0.0691,-0.0693,-0.0696,-0.0868,-0.087,-0.0872,-0.0996,-0.0998,-0.0999,-0.1001,-0.1127,-0.113,-0.1133,0,0,0,0,0,0,0,0,0,0,0,0,0,0,0,-0.0691,-0.0693,0,-0.0868,-0.087,-0.0872,-0.0997,-0.0998,-0.0999,-0.1,-0.1128,-0.113,-0.1132,0,0,0,0,0,0,0,0,0,0,0,0,0,0,0,0,0,0,0,0,0,0,0,0,0,0,0,0,0,0,0,0,0,0,0,0,0,0,0,0,0,0,0,0,0,0,0,0,0,0,0,0,0,0,0,0,0,0,0,0,0,0,0,0,0,0,0,0,0]}]],[[{"header":{"parameterUnit":"kt","parameterCategory":2,"dx":1,"dy":1,"la1":30.253999710083008,"la2":30.299108505249023,"lo1":-89.0895004272461,"lo2":-89.04439544677734,"nx":28,"ny":28,"refTime":"2022-10-25T21:00:00:Z","depth":"4","parameterNumber":2,"parameterNumberName":"U-component_of_CURRENTS"},"data":[0.1914,0.2021,0.2082,0.2125,0.2187,0.234,0.248,0.2669,0.2684,0.2966,0.3037,0.3246,0.3389,0.3545,0.3533,0.3573,0.3483,0.3942,0.3933,0.3919,0.3938,0.3955,0.3827,0,0,0,0,0,0.1971,0.2017,0.2146,0.2287,0.2449,0.2554,0.279,0.2927,0.3197,0.3193,0.3346,0.346,0.3548,0.3683,0.3606,0.389,0.393,0.3784,0.3753,0.3931,0.3952,0.382,0,0,0,0,0,0,0.2053,0.2111,0.2282,0.2431,0.2609,0.2704,0.284,0.2988,0.3139,0.3488,0.3518,0.376,0.3976,0.3968,0.4013,0.3997,0.3913,0.3748,0.3777,0.38,0.3664,0.3523,0.3421,0,0,0,0,0,0.2114,0.2229,0.236,0.2551,0.2715,0.2866,0.3076,0.3149,0.3436,0.368,0.3795,0.3871,0.4017,0.408,0.4133,0.4118,0.4248,0.4192,0.4201,0.4066,0.399,0.395,0.3946,0.4034,0.4037,0.4039,0.404,0,0.2166,0.2257,0.2536,0.2631,0.2761,0.2972,0.3101,0.3369,0.3496,0.3829,0.3892,0.4131,0.4247,0.4224,0.4346,0.4346,0.4296,0.425,0.4108,0.4023,0.398,0.3971,0.3961,0.4057,0.4056,0.4054,0.4053,0,0.2164,0.2335,0.2516,0.2773,0.2857,0.2989,0.3256,0.3393,0.3628,0.3817,0.3901,0.4138,0.4268,0.4363,0.4476,0.4348,0.4349,0.4302,0.4447,0.4413,0.4002,0.3985,0.4086,0.4079,0.4074,0.407,0.4066,0,0.2218,0.2354,0.2586,0.2682,0.2862,0.3022,0.3228,0.3385,0.361,0.375,0.3925,0.4043,0.4184,0.4291,0.4299,0.4275,0.4425,0.4157,0.4121,0.4246,0.4229,0.4208,0.4185,0.4402,0.4401,0.4401,0.44,0,0.2183,0.2404,0.2569,0.265,0.2873,0.2999,0.3126,0.3337,0.3468,0.371,0.3827,0.3992,0.4105,0.417,0.423,0.4187,0.4367,0.4289,0.4111,0.4094,0.4195,0.4173,0.4399,0.4399,0.4399,0.4399,0.4398,0,0.2213,0.2333,0.2519,0.2729,0.2783,0.2894,0.3135,0.3258,0.347,0.3579,0.3736,0.3812,0.3972,0.3923,0.4086,0.4041,0.4068,0.4083,0.4086,0.3856,0.3742,0.3851,0.4056,0.4053,0.405,0.4048,0.4046,0,0.216,0.2341,0.2424,0.2599,0.2698,0.2822,0.2948,0.3094,0.3226,0.3403,0.3492,0.3654,0.3645,0.3739,0.381,0.3881,0.3946,0.386,0.3916,0.3917,0.3699,0.3842,0.3915,0.401,0.4014,0.4018,0.402,0,0.2104,0.2307,0.2334,0.2432,0.2586,0.2659,0.2799,0.2958,0.3081,0.3218,0.3384,0.3524,0.3589,0.3628,0.3667,0.3732,0.3884,0.3713,0.3714,0.3728,0.4035,0.3822,0.3822,0.3892,0.3897,0.39,0.3995,0,0.2148,0.225,0.2296,0.2423,0.2506,0.2606,0.2693,0.2823,0.2917,0.2996,0.3197,0.3264,0.3399,0.3438,0.3442,0.3611,0.3584,0.3551,0.3468,0.3603,0.3622,0.3642,0.3366,0.3363,0.3361,0.3359,0,0,0.2076,0.2176,0.2235,0.232,0.2393,0.2464,0.2552,0.2633,0.2784,0.287,0.288,0.3103,0.3148,0.3284,0.3349,0.3357,0.3383,0.3348,0.3531,0.3551,0.3569,0.3594,0.3616,0.3355,0.3355,0.3354,0.3353,0,0.2067,0.2146,0.2201,0.2284,0.2384,0.2425,0.2474,0.2585,0.2673,0.2806,0.2846,0.2967,0.3078,0.3134,0.3162,0.3315,0.3297,0.335,0.3439,0.351,0.3532,0.3552,0.3582,0.3603,0.3348,0.3348,0.3348,0,0.2039,0.209,0.2121,0.2229,0.229,0.2364,0.2384,0.248,0.2565,0.2577,0.2747,0.2811,0.285,0.297,0.3034,0.2987,0.3196,0.313,0.3142,0.3151,0.3221,0.3247,0.327,0.2969,0.2968,0.2967,0,0,0.2032,0.2094,0.2156,0.2222,0.226,0.2339,0.2392,0.2446,0.2525,0.2585,0.2664,0.2733,0.2805,0.2856,0.2919,0.3015,0.3014,0.3085,0.3103,0.3118,0.3135,0.3208,0.3234,0.2962,0.2962,0.2962,0,0,0.2016,0.2077,0.2111,0.2177,0.2261,0.2314,0.2377,0.2434,0.2553,0.257,0.2604,0.2624,0.2771,0.2768,0.2711,0.2904,0.2827,0.284,0.2908,0.293,0.2948,0.2954,0.2669,0,0,0,0,0,0.2011,0.2057,0.2086,0.2102,0.2204,0.2289,0.2309,0.2385,0.2417,0.2502,0.2566,0.2556,0.2746,0.2696,0.271,0.28,0.2909,0.2918,0.2927,0.3039,0.3063,0.3083,0,0,0,0,0,0,0.2017,0.2035,0.2084,0.2127,0.215,0.2286,0.2281,0.2304,0.2413,0.2429,0.254,0.2554,0.2557,0.2688,0.2701,0.2788,0.2665,0.2912,0.292,0.2928,0.3047,0.3067,0.3083,0,0,0,0,0,0.2021,0.2036,0.2186,0.2129,0.2149,0.2244,0.2283,0.2303,0.2428,0.2439,0.2462,0.2491,0.2554,0.2572,0.2696,0.2783,0.2656,0.2661,0.2918,0.2924,0.293,0.3057,0,0,0,0,0,0,0.2025,0.2072,0.2192,0.22,0.2139,0.2244,0.2266,0.2302,0.2437,0.2456,0.238,0.2388,0.2552,0.2566,0.2579,0.2783,0.2649,0.2653,0.2656,0.2922,0.2927,0.2932,0,0,0,0,0,0,0.2063,0.2079,0.2197,0.2206,0.2217,0.2243,0.2263,0.2305,0.2438,0.2374,0.2383,0.2382,0.2524,0.2562,0.2573,0.2637,0.2643,0.2648,0.2651,0.2653,0.2926,0.293,0,0,0,0,0,0,0.2071,0.2085,0.2206,0.2213,0.2223,0.233,0.2284,0.2391,0.2435,0.2368,0.244,0.2442,0.2517,0.2531,0.2567,0.2626,0.2634,0.2643,0.2646,0.2649,0.265,0,0,0,0,0,0,0,0.2077,0.1973,0.213,0.222,0.2228,0.2272,0.2276,0.2279,0.2435,0.2438,0.244,0.2441,0.2616,0.2622,0.2627,0.2618,0,0,0.2643,0.2645,0,0,0,0,0,0,0,0,0.1968,0.1972,0.213,0.2131,0.2132,0.2273,0.2276,0.2279,0.2436,0.2437,0.2439,0.2441,0.2618,0.2622,0.2626,0,0,0,0,0,0,0,0,0,0,0,0,0,0,0,0.213,0.2131,0,0.2273,0.2275,0.2278,0.2436,0.2437,0.2439,0.244,0.2619,0.2622,0.2626,0,0,0,0,0,0,0,0,0,0,0,0,0,0,0,0,0,0,0,0,0,0,0,0,0,0,0,0,0,0,0,0,0,0,0,0,0,0,0,0,0,0,0,0,0,0,0,0,0,0,0,0,0,0,0,0,0,0,0,0,0,0,0,0,0,0,0,0,0]}],[{"header":{"parameterUnit":"kt","parameterCategory":2,"dx":1,"dy":1,"la1":30.253999710083008,"la2":30.299108505249023,"lo1":-89.0895004272461,"lo2":-89.04439544677734,"nx":28,"ny":28,"refTime":"2022-10-25T21:00:00:Z","depth":"4","parameterNumber":3,"parameterNumberName":"V-component_of_CURRENTS"},"data":[0.0982,0.1083,0.1148,0.1326,0.1436,0.1577,0.164,0.163,0.1602,0.1547,0.1307,0.1153,0.0695,0.0931,0.0229,0.0127,-0.0015,-0.0537,-0.0544,-0.0744,-0.074,-0.0737,-0.0622,0,0,0,0,0,0.0971,0.1042,0.1145,0.1269,0.1391,0.1472,0.1547,0.1556,0.1552,0.1516,0.1452,0.1201,0.073,0.0509,0.0215,0.0054,-0.0351,-0.0305,-0.0466,-0.0742,-0.0737,-0.0627,0,0,0,0,0,0,0.0956,0.1005,0.1091,0.1193,0.1308,0.1415,0.1439,0.1476,0.1491,0.1412,0.1376,0.1064,0.0868,0.0405,0.0101,-0.0199,-0.0279,-0.037,-0.0386,-0.0386,-0.0245,-0.0101,-0.0185,0,0,0,0,0,0.0929,0.0975,0.1012,0.1131,0.1212,0.1292,0.1364,0.1399,0.1378,0.1335,0.1239,0.0986,0.0711,0.0332,0.0001,-0.0298,-0.0548,-0.0643,-0.0643,-0.0625,-0.0552,-0.0566,-0.0547,-0.0721,-0.072,-0.072,-0.072,0,0.0921,0.0943,0.1015,0.1065,0.109,0.1145,0.1195,0.1177,0.1201,0.1123,0.113,0.0907,0.0752,0.0304,-0.0021,-0.044,-0.0493,-0.0631,-0.061,-0.0542,-0.0562,-0.0543,-0.0525,-0.0716,-0.0716,-0.0717,-0.0717,0,0.0928,0.093,0.0964,0.0983,0.1006,0.1034,0.1087,0.1094,0.104,0.1035,0.1013,0.082,0.0582,0.0301,-0.0037,-0.0205,-0.046,-0.0545,-0.0391,-0.0417,-0.0528,-0.0511,-0.071,-0.0712,-0.0713,-0.0714,-0.0714,0,0.0919,0.0928,0.095,0.0952,0.0988,0.0961,0.0984,0.0938,0.0893,0.0893,0.0737,0.0692,0.0412,0.023,0.0024,-0.0228,-0.0258,-0.0398,-0.0439,-0.033,-0.0315,-0.0382,-0.037,-0.0465,-0.0464,-0.0463,-0.0461,0,0.0917,0.0921,0.0929,0.0922,0.0911,0.0916,0.0907,0.0838,0.0827,0.0713,0.0692,0.0506,0.0439,0.0229,0.0027,0.0037,-0.0244,-0.0259,-0.0381,-0.038,-0.0369,-0.036,-0.046,-0.046,-0.0459,-0.0459,-0.0458,0,0.0901,0.0899,0.0909,0.0901,0.0895,0.0903,0.0846,0.0821,0.0723,0.0672,0.057,0.0488,0.0359,0.0317,0.0068,0.0136,0.0001,-0.01,-0.0109,-0.014,-0.0148,-0.0145,-0.0208,-0.0205,-0.0203,-0.02,-0.0198,0,0.0886,0.0889,0.0873,0.0877,0.087,0.0822,0.0803,0.0752,0.0686,0.0619,0.0509,0.0441,0.0383,0.0347,0.0244,0.0122,0.0025,0.0125,-0.0119,-0.0126,-0.0097,-0.016,0.0015,-0.0163,-0.0168,-0.0171,-0.0173,0,0.0866,0.0849,0.0847,0.0845,0.0805,0.0794,0.0763,0.0708,0.0679,0.0595,0.0536,0.0427,0.0372,0.0321,0.0261,0.0173,0.0075,0.0133,0.0127,0.0082,-0.0133,-0.0119,-0.0138,0.0031,0.0028,0.0025,-0.0149,0,0.0825,0.0826,0.0828,0.0805,0.0792,0.0778,0.0732,0.0697,0.0651,0.0602,0.0512,0.0423,0.0329,0.0302,0.0267,0.0178,0.0158,0.0132,0.0112,0.0088,0.0017,-0.0002,0.0199,0.0198,0.0197,0.0196,0,0,0.08,0.0795,0.0767,0.0764,0.075,0.0705,0.0702,0.0665,0.0598,0.0562,0.0541,0.0392,0.0335,0.0254,0.0242,0.0216,0.0158,0.0213,0.0109,0.01,0.0091,0.0022,0.0006,0.0194,0.0194,0.0193,0.0193,0,0.0772,0.0757,0.0767,0.0745,0.072,0.0688,0.0689,0.0635,0.0598,0.0552,0.0488,0.0422,0.0339,0.0272,0.0231,0.021,0.0146,0.0194,0.0206,0.0105,0.0097,0.009,0.0021,0.0007,0.0191,0.0191,0.0191,0,0.0735,0.072,0.0723,0.0698,0.0672,0.0659,0.062,0.0604,0.0584,0.0513,0.0459,0.0401,0.0322,0.0267,0.0239,0.0229,0.0127,0.0178,0.0181,0.017,0.0063,0.0055,0.0048,0.0141,0.0141,0.0141,0,0,0.0714,0.0716,0.0683,0.069,0.0678,0.0634,0.0621,0.0592,0.0543,0.0517,0.0457,0.0389,0.0332,0.0298,0.0241,0.02,0.0138,0.0177,0.0179,0.0181,0.0173,0.0067,0.0059,0.0142,0.0142,0.0142,0,0,0.0698,0.0671,0.0659,0.0664,0.0639,0.0588,0.0583,0.0556,0.0502,0.0493,0.0423,0.0404,0.0351,0.0307,0.0329,0.0232,0.0215,0.021,0.0276,0.0278,0.028,0.0285,0.0283,0,0,0,0,0,0.0665,0.0679,0.0669,0.0667,0.0627,0.0601,0.0592,0.0547,0.0528,0.0519,0.0457,0.0426,0.0292,0.0311,0.0297,0.0285,0.0157,0.0155,0.0152,0.0226,0.0229,0.0231,0,0,0,0,0,0,0.0664,0.066,0.0669,0.0624,0.0615,0.06,0.0558,0.0545,0.0527,0.0519,0.0439,0.0424,0.0373,0.0314,0.0303,0.0292,0.0287,0.0156,0.0154,0.0152,0.0227,0.0229,0.0231,0,0,0,0,0,0.0663,0.066,0.0611,0.0622,0.0615,0.0564,0.0557,0.0545,0.052,0.0454,0.0438,0.0489,0.0375,0.036,0.0307,0.0299,0.0294,0.029,0.0155,0.0153,0.0151,0.0228,0,0,0,0,0,0,0.0662,0.0633,0.0607,0.0603,0.0616,0.0562,0.0552,0.0546,0.0453,0.044,0.0502,0.0497,0.0376,0.0365,0.0354,0.0303,0.0301,0.0296,0.0294,0.0153,0.0152,0.0151,0,0,0,0,0,0,0.0635,0.063,0.0605,0.06,0.0594,0.0561,0.0553,0.0514,0.0452,0.0503,0.0498,0.0501,0.039,0.0368,0.0359,0.0301,0.0305,0.0301,0.0299,0.0297,0.0152,0.0151,0,0,0,0,0,0,0.0632,0.0627,0.06,0.0595,0.059,0.0532,0.0524,0.0479,0.047,0.0507,0.0467,0.0465,0.0394,0.0384,0.0363,0.0309,0.0303,0.0305,0.0303,0.0301,0.0299,0,0,0,0,0,0,0,0.0629,0.0674,0.0643,0.0592,0.0587,0.0566,0.0564,0.0561,0.0469,0.0468,0.0467,0.0466,0.0328,0.0324,0.0319,0.0316,0,0,0.0306,0.0304,0,0,0,0,0,0,0,0,0.0675,0.0674,0.0643,0.0643,0.0642,0.0565,0.0564,0.0562,0.0469,0.0468,0.0467,0.0466,0.0327,0.0323,0.032,0,0,0,0,0,0,0,0,0,0,0,0,0,0,0,0.0643,0.0643,0,0.0565,0.0564,0.0562,0.0469,0.0468,0.0467,0.0467,0.0326,0.0323,0.032,0,0,0,0,0,0,0,0,0,0,0,0,0,0,0,0,0,0,0,0,0,0,0,0,0,0,0,0,0,0,0,0,0,0,0,0,0,0,0,0,0,0,0,0,0,0,0,0,0,0,0,0,0,0,0,0,0,0,0,0,0,0,0,0,0,0,0,0,0]}]]]